Year,Month,Day,Hour,Minute,Value (Times are PST for insolation in W/m^2)
2012,04,30,00,00,0.00
2012,04,30,00,01,0.00
2012,04,30,00,02,0.00
2012,04,30,00,03,0.00
2012,04,30,00,04,0.00
2012,04,30,00,05,0.00
2012,04,30,00,06,0.00
2012,04,30,00,07,0.00
2012,04,30,00,08,0.00
2012,04,30,00,09,0.00
2012,04,30,00,10,0.00
2012,04,30,00,11,0.00
2012,04,30,00,12,0.00
2012,04,30,00,13,0.00
2012,04,30,00,14,0.00
2012,04,30,00,15,0.00
2012,04,30,00,16,0.00
2012,04,30,00,17,0.00
2012,04,30,00,18,0.00
2012,04,30,00,19,0.00
2012,04,30,00,20,0.00
2012,04,30,00,21,0.00
2012,04,30,00,22,0.00
2012,04,30,00,23,0.00
2012,04,30,00,24,0.00
2012,04,30,00,25,0.00
2012,04,30,00,26,0.00
2012,04,30,00,27,0.00
2012,04,30,00,28,0.00
2012,04,30,00,29,0.00
2012,04,30,00,30,0.00
2012,04,30,00,31,0.00
2012,04,30,00,32,0.00
2012,04,30,00,33,0.00
2012,04,30,00,34,0.00
2012,04,30,00,35,0.00
2012,04,30,00,36,0.00
2012,04,30,00,37,0.00
2012,04,30,00,38,0.00
2012,04,30,00,39,0.00
2012,04,30,00,40,0.00
2012,04,30,00,41,0.00
2012,04,30,00,42,0.00
2012,04,30,00,43,0.00
2012,04,30,00,44,0.00
2012,04,30,00,45,0.00
2012,04,30,00,46,0.00
2012,04,30,00,47,0.00
2012,04,30,00,48,0.00
2012,04,30,00,49,0.00
2012,04,30,00,50,0.00
2012,04,30,00,51,0.00
2012,04,30,00,52,0.00
2012,04,30,00,53,0.00
2012,04,30,00,54,0.00
2012,04,30,00,55,0.00
2012,04,30,00,56,0.00
2012,04,30,00,57,0.00
2012,04,30,00,58,0.00
2012,04,30,00,59,0.00
2012,04,30,01,00,0.00
2012,04,30,01,01,0.00
2012,04,30,01,02,0.00
2012,04,30,01,03,0.00
2012,04,30,01,04,0.00
2012,04,30,01,05,0.00
2012,04,30,01,06,0.00
2012,04,30,01,07,0.00
2012,04,30,01,08,0.00
2012,04,30,01,09,0.00
2012,04,30,01,10,0.00
2012,04,30,01,11,0.00
2012,04,30,01,12,0.00
2012,04,30,01,13,0.00
2012,04,30,01,14,0.00
2012,04,30,01,15,0.00
2012,04,30,01,16,0.00
2012,04,30,01,17,0.00
2012,04,30,01,18,0.00
2012,04,30,01,19,0.00
2012,04,30,01,20,0.00
2012,04,30,01,21,0.00
2012,04,30,01,22,0.00
2012,04,30,01,23,0.00
2012,04,30,01,24,0.00
2012,04,30,01,25,0.00
2012,04,30,01,26,0.00
2012,04,30,01,27,0.00
2012,04,30,01,28,0.00
2012,04,30,01,29,0.00
2012,04,30,01,30,0.00
2012,04,30,01,31,0.00
2012,04,30,01,32,0.00
2012,04,30,01,33,0.00
2012,04,30,01,34,0.00
2012,04,30,01,35,0.00
2012,04,30,01,36,0.00
2012,04,30,01,37,0.00
2012,04,30,01,38,0.00
2012,04,30,01,39,0.00
2012,04,30,01,40,0.00
2012,04,30,01,41,0.00
2012,04,30,01,42,0.00
2012,04,30,01,43,0.00
2012,04,30,01,44,0.00
2012,04,30,01,45,0.00
2012,04,30,01,46,0.00
2012,04,30,01,47,0.00
2012,04,30,01,48,0.00
2012,04,30,01,49,0.00
2012,04,30,01,50,0.00
2012,04,30,01,51,0.00
2012,04,30,01,52,0.00
2012,04,30,01,53,0.00
2012,04,30,01,54,0.00
2012,04,30,01,55,0.00
2012,04,30,01,56,0.00
2012,04,30,01,57,0.00
2012,04,30,01,58,0.00
2012,04,30,01,59,0.00
2012,04,30,02,00,0.00
2012,04,30,02,01,0.00
2012,04,30,02,02,0.00
2012,04,30,02,03,0.00
2012,04,30,02,04,0.00
2012,04,30,02,05,0.00
2012,04,30,02,06,0.00
2012,04,30,02,07,0.00
2012,04,30,02,08,0.00
2012,04,30,02,09,0.00
2012,04,30,02,10,0.00
2012,04,30,02,11,0.00
2012,04,30,02,12,0.00
2012,04,30,02,13,0.00
2012,04,30,02,14,0.00
2012,04,30,02,15,0.00
2012,04,30,02,16,0.00
2012,04,30,02,17,0.00
2012,04,30,02,18,0.00
2012,04,30,02,19,0.00
2012,04,30,02,20,0.00
2012,04,30,02,21,0.00
2012,04,30,02,22,0.00
2012,04,30,02,23,0.00
2012,04,30,02,24,0.00
2012,04,30,02,25,0.00
2012,04,30,02,26,0.00
2012,04,30,02,27,0.00
2012,04,30,02,28,0.00
2012,04,30,02,29,0.00
2012,04,30,02,30,0.00
2012,04,30,02,31,0.00
2012,04,30,02,32,0.00
2012,04,30,02,33,0.00
2012,04,30,02,34,0.00
2012,04,30,02,35,0.00
2012,04,30,02,36,0.00
2012,04,30,02,37,0.00
2012,04,30,02,38,0.00
2012,04,30,02,39,0.00
2012,04,30,02,40,0.00
2012,04,30,02,41,0.00
2012,04,30,02,42,0.00
2012,04,30,02,43,0.00
2012,04,30,02,44,0.00
2012,04,30,02,45,0.00
2012,04,30,02,46,0.00
2012,04,30,02,47,0.00
2012,04,30,02,48,0.00
2012,04,30,02,49,0.00
2012,04,30,02,50,0.00
2012,04,30,02,51,0.00
2012,04,30,02,52,0.00
2012,04,30,02,53,0.00
2012,04,30,02,54,0.00
2012,04,30,02,55,0.00
2012,04,30,02,56,0.00
2012,04,30,02,57,0.00
2012,04,30,02,58,0.00
2012,04,30,02,59,0.00
2012,04,30,03,00,0.00
2012,04,30,03,01,0.00
2012,04,30,03,02,0.00
2012,04,30,03,03,0.00
2012,04,30,03,04,0.00
2012,04,30,03,05,0.00
2012,04,30,03,06,0.00
2012,04,30,03,07,0.00
2012,04,30,03,08,0.00
2012,04,30,03,09,0.00
2012,04,30,03,10,0.00
2012,04,30,03,11,0.00
2012,04,30,03,12,0.00
2012,04,30,03,13,0.00
2012,04,30,03,14,0.00
2012,04,30,03,15,0.00
2012,04,30,03,16,0.00
2012,04,30,03,17,0.00
2012,04,30,03,18,0.00
2012,04,30,03,19,0.00
2012,04,30,03,20,0.00
2012,04,30,03,21,0.00
2012,04,30,03,22,0.00
2012,04,30,03,23,0.00
2012,04,30,03,24,0.00
2012,04,30,03,25,0.00
2012,04,30,03,26,0.00
2012,04,30,03,27,0.00
2012,04,30,03,28,0.00
2012,04,30,03,29,0.00
2012,04,30,03,30,0.00
2012,04,30,03,31,0.00
2012,04,30,03,32,0.00
2012,04,30,03,33,0.00
2012,04,30,03,34,0.00
2012,04,30,03,35,0.00
2012,04,30,03,36,0.00
2012,04,30,03,37,0.00
2012,04,30,03,38,0.00
2012,04,30,03,39,0.00
2012,04,30,03,40,0.00
2012,04,30,03,41,0.00
2012,04,30,03,42,0.00
2012,04,30,03,43,0.00
2012,04,30,03,44,0.00
2012,04,30,03,45,0.00
2012,04,30,03,46,0.00
2012,04,30,03,47,0.00
2012,04,30,03,48,0.00
2012,04,30,03,49,0.00
2012,04,30,03,50,0.00
2012,04,30,03,51,0.00
2012,04,30,03,52,0.00
2012,04,30,03,53,0.00
2012,04,30,03,54,0.00
2012,04,30,03,55,0.00
2012,04,30,03,56,0.00
2012,04,30,03,57,0.00
2012,04,30,03,58,0.00
2012,04,30,03,59,0.00
2012,04,30,04,00,0.00
2012,04,30,04,01,0.00
2012,04,30,04,02,0.00
2012,04,30,04,03,0.00
2012,04,30,04,04,0.00
2012,04,30,04,05,0.00
2012,04,30,04,06,0.00
2012,04,30,04,07,0.00
2012,04,30,04,08,0.00
2012,04,30,04,09,0.00
2012,04,30,04,10,0.00
2012,04,30,04,11,0.00
2012,04,30,04,12,0.00
2012,04,30,04,13,0.00
2012,04,30,04,14,0.00
2012,04,30,04,15,0.00
2012,04,30,04,16,0.00
2012,04,30,04,17,0.00
2012,04,30,04,18,0.00
2012,04,30,04,19,0.00
2012,04,30,04,20,0.00
2012,04,30,04,21,0.00
2012,04,30,04,22,0.00
2012,04,30,04,23,0.00
2012,04,30,04,24,0.00
2012,04,30,04,25,0.00
2012,04,30,04,26,0.00
2012,04,30,04,27,0.00
2012,04,30,04,28,0.00
2012,04,30,04,29,0.00
2012,04,30,04,30,0.00
2012,04,30,04,31,0.00
2012,04,30,04,32,0.00
2012,04,30,04,33,0.00
2012,04,30,04,34,0.00
2012,04,30,04,35,0.00
2012,04,30,04,36,0.00
2012,04,30,04,37,0.00
2012,04,30,04,38,0.00
2012,04,30,04,39,0.00
2012,04,30,04,40,0.00
2012,04,30,04,41,0.00
2012,04,30,04,42,0.00
2012,04,30,04,43,0.00
2012,04,30,04,44,0.00
2012,04,30,04,45,0.00
2012,04,30,04,46,0.00
2012,04,30,04,47,0.00
2012,04,30,04,48,0.00
2012,04,30,04,49,0.00
2012,04,30,04,50,0.00
2012,04,30,04,51,0.00
2012,04,30,04,52,0.00
2012,04,30,04,53,0.00
2012,04,30,04,54,0.00
2012,04,30,04,55,0.00
2012,04,30,04,56,0.00
2012,04,30,04,57,0.00
2012,04,30,04,58,0.00
2012,04,30,04,59,0.00
2012,04,30,05,00,0.00
2012,04,30,05,01,0.00
2012,04,30,05,02,0.00
2012,04,30,05,03,0.00
2012,04,30,05,04,0.00
2012,04,30,05,05,0.00
2012,04,30,05,06,0.00
2012,04,30,05,07,0.00
2012,04,30,05,08,0.00
2012,04,30,05,09,0.00
2012,04,30,05,10,0.00
2012,04,30,05,11,0.00
2012,04,30,05,12,0.00
2012,04,30,05,13,0.00
2012,04,30,05,14,0.00
2012,04,30,05,15,0.00
2012,04,30,05,16,0.00
2012,04,30,05,17,0.00
2012,04,30,05,18,0.00
2012,04,30,05,19,0.00
2012,04,30,05,20,0.00
2012,04,30,05,21,0.00
2012,04,30,05,22,0.00
2012,04,30,05,23,0.00
2012,04,30,05,24,0.00
2012,04,30,05,25,0.00
2012,04,30,05,26,0.00
2012,04,30,05,27,0.00
2012,04,30,05,28,0.00
2012,04,30,05,29,0.00
2012,04,30,05,30,0.00
2012,04,30,05,31,0.00
2012,04,30,05,32,0.00
2012,04,30,05,33,0.00
2012,04,30,05,34,0.00
2012,04,30,05,35,0.00
2012,04,30,05,36,0.00
2012,04,30,05,37,0.00
2012,04,30,05,38,0.00
2012,04,30,05,39,0.00
2012,04,30,05,40,0.00
2012,04,30,05,41,0.00
2012,04,30,05,42,0.00
2012,04,30,05,43,0.00
2012,04,30,05,44,0.00
2012,04,30,05,45,0.00
2012,04,30,05,46,0.00
2012,04,30,05,47,0.00
2012,04,30,05,48,0.00
2012,04,30,05,49,0.00
2012,04,30,05,50,0.00
2012,04,30,05,51,0.00
2012,04,30,05,52,0.00
2012,04,30,05,53,0.00
2012,04,30,05,54,0.00
2012,04,30,05,55,0.00
2012,04,30,05,56,0.00
2012,04,30,05,57,0.00
2012,04,30,05,58,0.00
2012,04,30,05,59,0.00
2012,04,30,06,00,0.00
2012,04,30,06,01,0.00
2012,04,30,06,02,0.00
2012,04,30,06,03,0.00
2012,04,30,06,04,0.00
2012,04,30,06,05,0.00
2012,04,30,06,06,0.00
2012,04,30,06,07,0.00
2012,04,30,06,08,0.00
2012,04,30,06,09,0.00
2012,04,30,06,10,0.00
2012,04,30,06,11,0.00
2012,04,30,06,12,0.00
2012,04,30,06,13,0.00
2012,04,30,06,14,0.00
2012,04,30,06,15,0.00
2012,04,30,06,16,0.20
2012,04,30,06,17,5.00
2012,04,30,06,18,5.00
2012,04,30,06,19,5.90
2012,04,30,06,20,7.00
2012,04,30,06,21,7.00
2012,04,30,06,22,7.00
2012,04,30,06,23,7.00
2012,04,30,06,24,9.00
2012,04,30,06,25,9.00
2012,04,30,06,26,9.00
2012,04,30,06,27,10.10
2012,04,30,06,28,11.00
2012,04,30,06,29,11.80
2012,04,30,06,30,12.00
2012,04,30,06,31,12.40
2012,04,30,06,32,14.00
2012,04,30,06,33,14.80
2012,04,30,06,34,16.00
2012,04,30,06,35,16.00
2012,04,30,06,36,17.60
2012,04,30,06,37,18.00
2012,04,30,06,38,18.10
2012,04,30,06,39,19.00
2012,04,30,06,40,19.00
2012,04,30,06,41,19.00
2012,04,30,06,42,19.00
2012,04,30,06,43,19.00
2012,04,30,06,44,19.00
2012,04,30,06,45,19.40
2012,04,30,06,46,21.00
2012,04,30,06,47,21.80
2012,04,30,06,48,23.00
2012,04,30,06,49,23.00
2012,04,30,06,50,21.40
2012,04,30,06,51,22.80
2012,04,30,06,52,23.30
2012,04,30,06,53,25.30
2012,04,30,06,54,27.70
2012,04,30,06,55,31.10
2012,04,30,06,56,32.00
2012,04,30,06,57,32.00
2012,04,30,06,58,32.00
2012,04,30,06,59,32.20
2012,04,30,07,00,33.60
2012,04,30,07,01,36.60
2012,04,30,07,02,39.50
2012,04,30,07,03,41.40
2012,04,30,07,04,43.60
2012,04,30,07,05,44.00
2012,04,30,07,06,43.60
2012,04,30,07,07,42.00
2012,04,30,07,08,39.90
2012,04,30,07,09,34.80
2012,04,30,07,10,33.00
2012,04,30,07,11,33.00
2012,04,30,07,12,34.90
2012,04,30,07,13,35.30
2012,04,30,07,14,37.60
2012,04,30,07,15,39.40
2012,04,30,07,16,40.00
2012,04,30,07,17,40.00
2012,04,30,07,18,41.60
2012,04,30,07,19,44.00
2012,04,30,07,20,46.00
2012,04,30,07,21,44.80
2012,04,30,07,22,40.70
2012,04,30,07,23,36.80
2012,04,30,07,24,35.00
2012,04,30,07,25,38.90
2012,04,30,07,26,43.50
2012,04,30,07,27,42.00
2012,04,30,07,28,42.00
2012,04,30,07,29,42.00
2012,04,30,07,30,40.90
2012,04,30,07,31,40.00
2012,04,30,07,32,41.60
2012,04,30,07,33,41.80
2012,04,30,07,34,38.40
2012,04,30,07,35,37.10
2012,04,30,07,36,48.30
2012,04,30,07,37,56.00
2012,04,30,07,38,60.50
2012,04,30,07,39,62.20
2012,04,30,07,40,50.60
2012,04,30,07,41,30.40
2012,04,30,07,42,20.40
2012,04,30,07,43,21.90
2012,04,30,07,44,33.70
2012,04,30,07,45,49.10
2012,04,30,07,46,53.80
2012,04,30,07,47,50.80
2012,04,30,07,48,38.40
2012,04,30,07,49,28.50
2012,04,30,07,50,28.60
2012,04,30,07,51,41.40
2012,04,30,07,52,50.30
2012,04,30,07,53,43.80
2012,04,30,07,54,28.90
2012,04,30,07,55,17.60
2012,04,30,07,56,18.70
2012,04,30,07,57,27.00
2012,04,30,07,58,30.00
2012,04,30,07,59,34.80
2012,04,30,08,00,45.00
2012,04,30,08,01,52.70
2012,04,30,08,02,54.00
2012,04,30,08,03,54.00
2012,04,30,08,04,55.80
2012,04,30,08,05,59.20
2012,04,30,08,06,62.00
2012,04,30,08,07,67.80
2012,04,30,08,08,80.40
2012,04,30,08,09,93.60
2012,04,30,08,10,95.80
2012,04,30,08,11,93.00
2012,04,30,08,12,91.40
2012,04,30,08,13,92.10
2012,04,30,08,14,93.00
2012,04,30,08,15,111.90
2012,04,30,08,16,116.80
2012,04,30,08,17,132.60
2012,04,30,08,18,133.20
2012,04,30,08,19,129.20
2012,04,30,08,20,127.00
2012,04,30,08,21,129.40
2012,04,30,08,22,130.20
2012,04,30,08,23,136.10
2012,04,30,08,24,141.70
2012,04,30,08,25,141.00
2012,04,30,08,26,147.00
2012,04,30,08,27,160.80
2012,04,30,08,28,186.60
2012,04,30,08,29,196.40
2012,04,30,08,30,277.50
2012,04,30,08,31,264.00
2012,04,30,08,32,275.20
2012,04,30,08,33,278.70
2012,04,30,08,34,285.00
2012,04,30,08,35,246.60
2012,04,30,08,36,209.10
2012,04,30,08,37,201.20
2012,04,30,08,38,174.60
2012,04,30,08,39,180.20
2012,04,30,08,40,193.70
2012,04,30,08,41,209.80
2012,04,30,08,42,206.10
2012,04,30,08,43,226.50
2012,04,30,08,44,246.20
2012,04,30,08,45,299.70
2012,04,30,08,46,263.20
2012,04,30,08,47,255.90
2012,04,30,08,48,304.40
2012,04,30,08,49,282.60
2012,04,30,08,50,251.90
2012,04,30,08,51,243.60
2012,04,30,08,52,230.50
2012,04,30,08,53,222.20
2012,04,30,08,54,219.40
2012,04,30,08,55,207.10
2012,04,30,08,56,202.00
2012,04,30,08,57,193.60
2012,04,30,08,58,194.20
2012,04,30,08,59,200.50
2012,04,30,09,00,217.80
2012,04,30,09,01,198.80
2012,04,30,09,02,198.80
2012,04,30,09,03,241.20
2012,04,30,09,04,223.20
2012,04,30,09,05,257.90
2012,04,30,09,06,217.40
2012,04,30,09,07,180.40
2012,04,30,09,08,192.80
2012,04,30,09,09,175.80
2012,04,30,09,10,203.80
2012,04,30,09,11,222.50
2012,04,30,09,12,260.70
2012,04,30,09,13,273.30
2012,04,30,09,14,272.60
2012,04,30,09,15,257.90
2012,04,30,09,16,278.20
2012,04,30,09,17,257.10
2012,04,30,09,18,270.90
2012,04,30,09,19,272.30
2012,04,30,09,20,281.50
2012,04,30,09,21,316.70
2012,04,30,09,22,332.20
2012,04,30,09,23,351.60
2012,04,30,09,24,394.00
2012,04,30,09,25,310.80
2012,04,30,09,26,306.00
2012,04,30,09,27,292.00
2012,04,30,09,28,257.40
2012,04,30,09,29,255.20
2012,04,30,09,30,264.20
2012,04,30,09,31,269.00
2012,04,30,09,32,466.00
2012,04,30,09,33,452.00
2012,04,30,09,34,500.30
2012,04,30,09,35,613.00
2012,04,30,09,36,613.00
2012,04,30,09,37,613.00
2012,04,30,09,38,324.80
2012,04,30,09,39,233.50
2012,04,30,09,40,232.60
2012,04,30,09,41,252.30
2012,04,30,09,42,246.60
2012,04,30,09,43,204.90
2012,04,30,09,44,190.60
2012,04,30,09,45,183.60
2012,04,30,09,46,182.90
2012,04,30,09,47,180.60
2012,04,30,09,48,176.40
2012,04,30,09,49,170.80
2012,04,30,09,50,166.80
2012,04,30,09,51,157.40
2012,04,30,09,52,143.50
2012,04,30,09,53,135.90
2012,04,30,09,54,144.80
2012,04,30,09,55,168.20
2012,04,30,09,56,197.60
2012,04,30,09,57,228.40
2012,04,30,09,58,256.70
2012,04,30,09,59,290.70
2012,04,30,10,00,325.90
2012,04,30,10,01,334.00
2012,04,30,10,02,334.00
2012,04,30,10,03,334.00
2012,04,30,10,04,414.50
2012,04,30,10,05,487.00
2012,04,30,10,06,487.00
2012,04,30,10,07,484.60
2012,04,30,10,08,442.20
2012,04,30,10,09,447.80
2012,04,30,10,10,431.00
2012,04,30,10,11,515.20
2012,04,30,10,12,584.00
2012,04,30,10,13,312.00
2012,04,30,10,14,240.70
2012,04,30,10,15,181.00
2012,04,30,10,16,178.30
2012,04,30,10,17,175.80
2012,04,30,10,18,185.90
2012,04,30,10,19,194.60
2012,04,30,10,20,208.20
2012,04,30,10,21,231.90
2012,04,30,10,22,250.80
2012,04,30,10,23,256.50
2012,04,30,10,24,261.70
2012,04,30,10,25,264.00
2012,04,30,10,26,268.90
2012,04,30,10,27,267.80
2012,04,30,10,28,266.50
2012,04,30,10,29,255.60
2012,04,30,10,30,248.90
2012,04,30,10,31,254.10
2012,04,30,10,32,263.20
2012,04,30,10,33,265.70
2012,04,30,10,34,275.40
2012,04,30,10,35,286.10
2012,04,30,10,36,288.90
2012,04,30,10,37,296.00
2012,04,30,10,38,286.20
2012,04,30,10,39,276.00
2012,04,30,10,40,276.90
2012,04,30,10,41,290.80
2012,04,30,10,42,294.00
2012,04,30,10,43,284.40
2012,04,30,10,44,238.70
2012,04,30,10,45,216.20
2012,04,30,10,46,199.20
2012,04,30,10,47,203.40
2012,04,30,10,48,209.00
2012,04,30,10,49,228.60
2012,04,30,10,50,246.50
2012,04,30,10,51,270.00
2012,04,30,10,52,309.40
2012,04,30,10,53,336.00
2012,04,30,10,54,336.00
2012,04,30,10,55,336.00
2012,04,30,10,56,362.30
2012,04,30,10,57,879.80
2012,04,30,10,58,831.00
2012,04,30,10,59,831.00
2012,04,30,11,00,563.70
2012,04,30,11,01,332.00
2012,04,30,11,02,297.00
2012,04,30,11,03,268.70
2012,04,30,11,04,267.70
2012,04,30,11,05,205.50
2012,04,30,11,06,205.60
2012,04,30,11,07,232.00
2012,04,30,11,08,333.40
2012,04,30,11,09,388.00
2012,04,30,11,10,391.70
2012,04,30,11,11,450.30
2012,04,30,11,12,374.50
2012,04,30,11,13,359.80
2012,04,30,11,14,385.00
2012,04,30,11,15,385.00
2012,04,30,11,16,385.00
2012,04,30,11,17,385.00
2012,04,30,11,18,385.00
2012,04,30,11,19,385.00
2012,04,30,11,20,548.20
2012,04,30,11,21,739.70
2012,04,30,11,22,696.00
2012,04,30,11,23,696.00
2012,04,30,11,24,696.00
2012,04,30,11,25,696.00
2012,04,30,11,26,751.80
2012,04,30,11,27,882.00
2012,04,30,11,28,882.00
2012,04,30,11,29,601.30
2012,04,30,11,30,461.00
2012,04,30,11,31,461.00
2012,04,30,11,32,548.70
2012,04,30,11,33,965.00
2012,04,30,11,34,855.00
2012,04,30,11,35,696.00
2012,04,30,11,36,623.20
2012,04,30,11,37,639.00
2012,04,30,11,38,559.80
2012,04,30,11,39,491.80
2012,04,30,11,40,559.00
2012,04,30,11,41,559.00
2012,04,30,11,42,559.00
2012,04,30,11,43,559.00
2012,04,30,11,44,559.00
2012,04,30,11,45,423.30
2012,04,30,11,46,437.40
2012,04,30,11,47,403.00
2012,04,30,11,48,403.00
2012,04,30,11,49,325.50
2012,04,30,11,50,271.60
2012,04,30,11,51,278.40
2012,04,30,11,52,278.90
2012,04,30,11,53,327.00
2012,04,30,11,54,411.30
2012,04,30,11,55,605.60
2012,04,30,11,56,621.00
2012,04,30,11,57,621.00
2012,04,30,11,58,810.50
2012,04,30,11,59,832.50
2012,04,30,12,00,577.00
2012,04,30,12,01,563.10
2012,04,30,12,02,533.00
2012,04,30,12,03,770.60
2012,04,30,12,04,965.00
2012,04,30,12,05,885.00
2012,04,30,12,06,856.10
2012,04,30,12,07,781.60
2012,04,30,12,08,780.00
2012,04,30,12,09,780.00
2012,04,30,12,10,780.00
2012,04,30,12,11,700.00
2012,04,30,12,12,667.30
2012,04,30,12,13,680.80
2012,04,30,12,14,888.80
2012,04,30,12,15,902.90
2012,04,30,12,16,906.40
2012,04,30,12,17,918.00
2012,04,30,12,18,957.20
2012,04,30,12,19,974.00
2012,04,30,12,20,974.00
2012,04,30,12,21,974.00
2012,04,30,12,22,900.10
2012,04,30,12,23,760.70
2012,04,30,12,24,795.30
2012,04,30,12,25,802.00
2012,04,30,12,26,611.70
2012,04,30,12,27,516.90
2012,04,30,12,28,504.20
2012,04,30,12,29,473.00
2012,04,30,12,30,473.00
2012,04,30,12,31,473.00
2012,04,30,12,32,742.60
2012,04,30,12,33,867.00
2012,04,30,12,34,902.70
2012,04,30,12,35,860.00
2012,04,30,12,36,860.00
2012,04,30,12,37,860.00
2012,04,30,12,38,860.00
2012,04,30,12,39,860.00
2012,04,30,12,40,540.80
2012,04,30,12,41,446.60
2012,04,30,12,42,437.80
2012,04,30,12,43,390.10
2012,04,30,12,44,366.40
2012,04,30,12,45,347.40
2012,04,30,12,46,337.60
2012,04,30,12,47,333.00
2012,04,30,12,48,336.10
2012,04,30,12,49,346.00
2012,04,30,12,50,348.70
2012,04,30,12,51,351.90
2012,04,30,12,52,335.80
2012,04,30,12,53,317.20
2012,04,30,12,54,309.10
2012,04,30,12,55,297.40
2012,04,30,12,56,281.60
2012,04,30,12,57,277.60
2012,04,30,12,58,291.80
2012,04,30,12,59,326.10
2012,04,30,13,00,358.50
2012,04,30,13,01,378.60
2012,04,30,13,02,412.10
2012,04,30,13,03,469.00
2012,04,30,13,04,501.00
2012,04,30,13,05,530.50
2012,04,30,13,06,557.80
2012,04,30,13,07,547.00
2012,04,30,13,08,547.00
2012,04,30,13,09,547.00
2012,04,30,13,10,547.00
2012,04,30,13,11,547.00
2012,04,30,13,12,488.50
2012,04,30,13,13,404.10
2012,04,30,13,14,416.60
2012,04,30,13,15,454.60
2012,04,30,13,16,493.30
2012,04,30,13,17,459.20
2012,04,30,13,18,465.20
2012,04,30,13,19,531.40
2012,04,30,13,20,597.60
2012,04,30,13,21,549.00
2012,04,30,13,22,498.20
2012,04,30,13,23,465.50
2012,04,30,13,24,464.00
2012,04,30,13,25,574.70
2012,04,30,13,26,833.00
2012,04,30,13,27,833.00
2012,04,30,13,28,591.20
2012,04,30,13,29,518.60
2012,04,30,13,30,508.70
2012,04,30,13,31,506.00
2012,04,30,13,32,506.00
2012,04,30,13,33,506.00
2012,04,30,13,34,506.00
2012,04,30,13,35,526.50
2012,04,30,13,36,536.00
2012,04,30,13,37,386.30
2012,04,30,13,38,384.30
2012,04,30,13,39,419.40
2012,04,30,13,40,413.20
2012,04,30,13,41,413.70
2012,04,30,13,42,423.40
2012,04,30,13,43,417.00
2012,04,30,13,44,415.00
2012,04,30,13,45,419.60
2012,04,30,13,46,438.00
2012,04,30,13,47,432.50
2012,04,30,13,48,431.00
2012,04,30,13,49,436.00
2012,04,30,13,50,436.00
2012,04,30,13,51,1093.90
2012,04,30,13,52,1167.00
2012,04,30,13,53,1167.00
2012,04,30,13,54,1167.00
2012,04,30,13,55,1167.00
2012,04,30,13,56,684.60
2012,04,30,13,57,462.00
2012,04,30,13,58,493.40
2012,04,30,13,59,1078.90
2012,04,30,14,00,1020.00
2012,04,30,14,01,1020.00
2012,04,30,14,02,1020.00
2012,04,30,14,03,1020.00
2012,04,30,14,04,1020.00
2012,04,30,14,05,991.80
2012,04,30,14,06,451.80
2012,04,30,14,07,423.10
2012,04,30,14,08,404.00
2012,04,30,14,09,414.20
2012,04,30,14,10,419.50
2012,04,30,14,11,426.60
2012,04,30,14,12,429.00
2012,04,30,14,13,427.60
2012,04,30,14,14,408.20
2012,04,30,14,15,368.40
2012,04,30,14,16,358.60
2012,04,30,14,17,356.50
2012,04,30,14,18,368.50
2012,04,30,14,19,415.10
2012,04,30,14,20,455.80
2012,04,30,14,21,592.40
2012,04,30,14,22,584.20
2012,04,30,14,23,595.00
2012,04,30,14,24,596.00
2012,04,30,14,25,486.40
2012,04,30,14,26,447.90
2012,04,30,14,27,397.20
2012,04,30,14,28,394.10
2012,04,30,14,29,405.20
2012,04,30,14,30,408.00
2012,04,30,14,31,408.00
2012,04,30,14,32,512.10
2012,04,30,14,33,569.20
2012,04,30,14,34,569.50
2012,04,30,14,35,653.40
2012,04,30,14,36,694.00
2012,04,30,14,37,694.00
2012,04,30,14,38,694.00
2012,04,30,14,39,558.20
2012,04,30,14,40,438.80
2012,04,30,14,41,438.00
2012,04,30,14,42,438.00
2012,04,30,14,43,683.10
2012,04,30,14,44,992.00
2012,04,30,14,45,967.70
2012,04,30,14,46,979.20
2012,04,30,14,47,983.00
2012,04,30,14,48,983.00
2012,04,30,14,49,983.00
2012,04,30,14,50,823.20
2012,04,30,14,51,597.30
2012,04,30,14,52,606.80
2012,04,30,14,53,624.00
2012,04,30,14,54,624.00
2012,04,30,14,55,681.70
2012,04,30,14,56,881.20
2012,04,30,14,57,842.00
2012,04,30,14,58,842.00
2012,04,30,14,59,842.00
2012,04,30,15,00,842.00
2012,04,30,15,01,920.30
2012,04,30,15,02,919.00
2012,04,30,15,03,919.00
2012,04,30,15,04,919.00
2012,04,30,15,05,919.00
2012,04,30,15,06,919.00
2012,04,30,15,07,867.00
2012,04,30,15,08,876.60
2012,04,30,15,09,786.80
2012,04,30,15,10,726.00
2012,04,30,15,11,726.00
2012,04,30,15,12,726.00
2012,04,30,15,13,726.00
2012,04,30,15,14,726.00
2012,04,30,15,15,726.00
2012,04,30,15,16,726.00
2012,04,30,15,17,726.00
2012,04,30,15,18,726.00
2012,04,30,15,19,726.00
2012,04,30,15,20,726.00
2012,04,30,15,21,726.00
2012,04,30,15,22,726.00
2012,04,30,15,23,726.00
2012,04,30,15,24,738.00
2012,04,30,15,25,766.00
2012,04,30,15,26,766.00
2012,04,30,15,27,766.00
2012,04,30,15,28,766.00
2012,04,30,15,29,769.30
2012,04,30,15,30,846.00
2012,04,30,15,31,846.00
2012,04,30,15,32,846.00
2012,04,30,15,33,846.00
2012,04,30,15,34,846.00
2012,04,30,15,35,846.00
2012,04,30,15,36,846.00
2012,04,30,15,37,846.00
2012,04,30,15,38,854.20
2012,04,30,15,39,882.80
2012,04,30,15,40,845.60
2012,04,30,15,41,779.10
2012,04,30,15,42,763.00
2012,04,30,15,43,763.00
2012,04,30,15,44,763.00
2012,04,30,15,45,763.00
2012,04,30,15,46,763.00
2012,04,30,15,47,584.20
2012,04,30,15,48,438.00
2012,04,30,15,49,438.00
2012,04,30,15,50,438.00
2012,04,30,15,51,478.30
2012,04,30,15,52,689.10
2012,04,30,15,53,678.00
2012,04,30,15,54,675.00
2012,04,30,15,55,675.00
2012,04,30,15,56,692.70
2012,04,30,15,57,696.00
2012,04,30,15,58,693.60
2012,04,30,15,59,686.70
2012,04,30,16,00,693.00
2012,04,30,16,01,693.00
2012,04,30,16,02,477.90
2012,04,30,16,03,362.00
2012,04,30,16,04,657.80
2012,04,30,16,05,696.00
2012,04,30,16,06,696.00
2012,04,30,16,07,696.00
2012,04,30,16,08,696.00
2012,04,30,16,09,563.00
2012,04,30,16,10,506.00
2012,04,30,16,11,496.20
2012,04,30,16,12,320.00
2012,04,30,16,13,320.00
2012,04,30,16,14,320.00
2012,04,30,16,15,516.30
2012,04,30,16,16,637.30
2012,04,30,16,17,687.80
2012,04,30,16,18,689.50
2012,04,30,16,19,410.00
2012,04,30,16,20,410.00
2012,04,30,16,21,410.00
2012,04,30,16,22,331.30
2012,04,30,16,23,274.00
2012,04,30,16,24,274.00
2012,04,30,16,25,274.00
2012,04,30,16,26,274.00
2012,04,30,16,27,274.00
2012,04,30,16,28,274.00
2012,04,30,16,29,240.40
2012,04,30,16,30,213.00
2012,04,30,16,31,536.80
2012,04,30,16,32,613.00
2012,04,30,16,33,604.40
2012,04,30,16,34,570.00
2012,04,30,16,35,505.20
2012,04,30,16,36,408.00
2012,04,30,16,37,408.00
2012,04,30,16,38,502.40
2012,04,30,16,39,584.40
2012,04,30,16,40,596.00
2012,04,30,16,41,596.00
2012,04,30,16,42,596.00
2012,04,30,16,43,596.00
2012,04,30,16,44,604.40
2012,04,30,16,45,631.60
2012,04,30,16,46,600.00
2012,04,30,16,47,560.40
2012,04,30,16,48,550.00
2012,04,30,16,49,457.40
2012,04,30,16,50,313.00
2012,04,30,16,51,278.20
2012,04,30,16,52,267.00
2012,04,30,16,53,267.00
2012,04,30,16,54,310.80
2012,04,30,16,55,536.20
2012,04,30,16,56,461.90
2012,04,30,16,57,436.00
2012,04,30,16,58,506.90
2012,04,30,16,59,528.20
2012,04,30,17,00,431.90
2012,04,30,17,01,446.80
2012,04,30,17,02,515.90
2012,04,30,17,03,481.20
2012,04,30,17,04,493.40
2012,04,30,17,05,519.70
2012,04,30,17,06,531.20
2012,04,30,17,07,532.20
2012,04,30,17,08,487.90
2012,04,30,17,09,402.60
2012,04,30,17,10,372.00
2012,04,30,17,11,410.00
2012,04,30,17,12,283.30